Location: Dąbrowa Miętka
(51.3714°N, 18.6370°E)
Time: 07:04:02
(UTC+02:00)

ISS - Visible Passes

Search period start: 20 September 2018 00:00
Search period end: 30 September 2018 00:00
Orbit: 402 x 408 km, 51.6° (Epoch: 20 September)

Date Brightness Start Highest point End Pass type
(mag) Time Alt. Az. Time Alt. Az. Time Alt. Az.
22 Sep -1.7 20:27:36 10° SSW 20:28:33 15° S 20:28:33 15° S visible
23 Sep -1.8 19:36:37 10° S 19:38:23 14° SE 19:39:12 13° ESE visible
23 Sep -1.3 21:11:07 10° SW 21:11:54 16° SW 21:11:54 16° SW visible
24 Sep -3.1 20:19:21 10° SW 20:22:20 36° SSE 20:22:20 36° SSE visible
25 Sep -2.5 19:27:47 10° SSW 19:30:31 24° SSE 19:32:36 14° E visible
25 Sep -2.2 21:03:25 10° WSW 21:05:17 31° WSW 21:05:17 31° WSW visible
26 Sep -3.7 20:11:28 10° WSW 20:14:42 58° SSE 20:15:26 44° ESE visible
26 Sep -0.6 21:47:53 10° W 21:48:06 12° W 21:48:06 12° W visible
27 Sep -3.2 19:19:36 10° SW 19:22:43 41° SSE 19:25:29 13° E visible
27 Sep -2.7 20:55:48 10° W 20:58:09 43° W 20:58:09 43° W visible
28 Sep -3.9 20:03:43 10° WSW 20:07:02 82° SSE 20:08:07 39° E visible
28 Sep -0.7 21:40:15 10° W 21:40:47 14° W 21:40:47 14° W visible
29 Sep -3.7 19:11:42 10° WSW 19:14:58 65° SSE 19:18:02 11° E visible
29 Sep -3.0 20:48:09 10° W 20:50:42 50° W 20:50:42 50° W visible
